Fish Creek, WI

5:47 AM CDT on September 15, 2014 (GMT -0500)
Door County Cherryland | Change Station
CLOSE
Current Station
Airport
Location: Sturgeon Bay,
Elevation: 725 ft
Nearby Weather Stations

Elev 725 ft 44.84 °N, 87.42 °W | Updated 12 minutes ago

Overcast
Overcast
52 °F
Feels Like 52 °F
N
0
Wind Variable Wind from North

Today
High -- | Low -- °F
--% Chance of Precip.
Yesterday
High -- | Low -- °F
Precip. -- in
6:27 AM 6:59 PM
Waning Gibbous, 56% visible
Pressure 30.13 in
Visibility 10.0 miles
Clouds Overcast 10000 ft
Dew Point 46 °F
Humidity 82%
Rainfall 0.00 in
Snow Depth Not available.
UV 0 out of 12
Pollen 4.40 out of 12
Air Quality Not available.
Flu Activity Not available.
METAR KSUE 151035Z AUTO 00000KT 10SM OVC100 11/08 A3013 RMK AO1

More Conditions Fewer Conditions

Pressure 30.13 in
Visibility 10.0 miles
Clouds Overcast 10000 ft
Dew Point 46 °F
Humidity 82%
Rainfall 0.00 in
Snow Depth Not available.
UV 0 out of 12
Pollen 4.40 out of 12
Air Quality Not available.
Flu Activity Not available.
METAR KSUE 151035Z AUTO 00000KT 10SM OVC100 11/08 A3013 RMK AO1

More Conditions Fewer Conditions

10-Day Weather Forecast

Almanac

Astronomy

Sep. 15, 2014 Rise Set
Actual Time 6:27 AM CDT 6:59 PM CDT
Civil Twilight 5:57 AM CDT 7:29 PM CDT
Nautical Twilight 5:22 AM CDT 8:04 PM CDT
Astronomical Twilight 4:46 AM CDT 8:40 PM CDT
Moon 11:26 PM CDT 1:43 PM CDT
Length of Visible Light 13h 31m
Length of Day
12h 32m
Tomorrow will be 3m 7s shorter.
Waning Gibbous, 56% of the Moon is Illuminated
Today
Waning Gibbous
Sep 15
Last Quarter
Sep 24
New
Oct 1
First Quarter
Oct 8
Full

Today's Extremes

State Highs State Lows

Community

WunderPhotos

Upload Photos

1,753,428 photos uploaded!

Nearby

Snow Depth

Station Depth Elevation
No new snow has been reported.

Earthquake Activity

City Distance Mag. Time & Date
No recent earthquake activity has been reported nearby.
Minimum magnitude displayed is 2.5.

Coastal Water Temperatures

Place Temperature
Menominee, MI 62.1 °F

Nearby Weather Stations